Weather History for Lafayette, LA

Change the Weather History Date:

Tuesday, January 29, 2013

  Actual Average Record
Temperature  
Mean Temperature 72 °F 53 °F  
Max Temperature 76 °F 63 °F 80 °F (2002)
Min Temperature 67 °F 44 °F 23 °F (2014)
Degree Days  
Heating Degree Days 0 12  
Month to date heating degree days 293 374  
Since 1 July heating degree days 783 928  
Cooling Degree Days 6    
Growing Degree Days 20 (Base 50)    
Moisture  
Dew Point 66 °F    
Average Humidity 84    
Maximum Humidity 93    
Minimum Humidity 74    
Precipitation  
Precipitation 0.01 in 0.19 in 2.60 in (1912)
Month to date precipitation 10.44 5.31  
Year to date precipitation 10.44 5.31  
Snow  
Snow 0.00 in 0.00 in T in (1979)
Month to date snowfall 0.0 0.0  
Since 1 July snowfall 0.0 0.0  
Snow Depth 0.00 in    
Sea Level Pressure  
Sea Level Pressure 29.94 in    
Wind  
Wind Speed 11 mph (SSE)    
Max Wind Speed 22 mph    
Max Gust Speed 31 mph    
Visibility 9 miles    
Events Rain    
T = Trace of Precipitation, MM = Missing Value Source: NWS Daily Summary

Daily Weather History Graph

Daily Weather History Graph

Search for Another Location

Airport:

Trip Planner

Search our weather history database for the weather conditions in past years. The results will help you decide how hot, cold, wet, or windy it might be!

Date:

Astronomy

Jan. 29, 2013 Rise Set
Actual Time 7:00 AM CST 5:42 PM CST
Civil Twilight 6:34 AM CST 6:07 PM CST
Nautical Twilight 6:06 AM CST 6:36 PM CST
Astronomical Twilight 5:37 AM CST 7:04 PM CST
Moon 8:22 PM CST (1/29) 8:11 AM CST (1/29)
Length of Visible Light 11h 32m
Length of Day
10h 42m
Waning Gibbous, 93% of the Moon is Illuminated
Jan 29
Waning Gibbous
Feb 3
Last Quarter
Feb 10
New
Feb 17
First Quarter
Feb 25
Full

Hourly Weather History & Observations

Time (CST) Temp. Dew Point Humidity Pressure Visibility Wind Dir Wind Speed Gust Speed Precip Events Conditions
12:53 AM 69.1 °F 64.9 °F 87% 30.07 in 8.0 mi SSE 11.5 mph 19.6 mph N/A   Overcast
1:35 AM 69.8 °F 64.4 °F 83% 30.06 in 10.0 mi SSE 6.9 mph - N/A   Overcast
1:53 AM 69.1 °F 64.9 °F 87% 30.06 in 9.0 mi SSE 10.4 mph - N/A   Overcast
2:11 AM 69.8 °F 64.4 °F 83% 30.05 in 8.0 mi SSE 11.5 mph 17.3 mph N/A   Overcast
2:53 AM 68.0 °F 64.9 °F 90% 30.04 in 9.0 mi South 6.9 mph - N/A   Overcast
3:53 AM 69.1 °F 64.9 °F 87% 30.04 in 10.0 mi South 8.1 mph - N/A   Overcast
4:16 AM 68.0 °F 64.4 °F 88% 30.02 in 10.0 mi South 6.9 mph - N/A   Overcast
4:30 AM 68.0 °F 64.4 °F 88% 30.02 in 10.0 mi SSE 5.8 mph - N/A   Overcast
4:39 AM 68.0 °F 64.4 °F 88% 30.01 in 10.0 mi SSE 5.8 mph - N/A   Overcast
4:53 AM 68.0 °F 64.0 °F 87% 30.01 in 10.0 mi SSE 6.9 mph - N/A   Overcast
5:31 AM 66.2 °F 64.4 °F 94% 30.00 in 10.0 mi SSE 6.9 mph - N/A   Scattered Clouds
5:53 AM 66.9 °F 64.0 °F 90% 30.00 in 8.0 mi SSE 6.9 mph - N/A   Clear
6:00 AM 66.2 °F 64.4 °F 94% 30.00 in 8.0 mi SSE 8.1 mph - N/A   Scattered Clouds
6:09 AM 66.2 °F 64.4 °F 94% 30.00 in 7.0 mi SSE 8.1 mph - N/A   Mostly Cloudy
6:53 AM 66.9 °F 64.9 °F 93% 29.99 in 7.0 mi Variable 6.9 mph - N/A   Overcast
7:53 AM 69.1 °F 66.0 °F 90% 29.99 in 7.0 mi SSE 8.1 mph - N/A   Overcast
8:37 AM 69.8 °F 66.2 °F 88% 29.99 in 8.0 mi SSE 8.1 mph 17.3 mph N/A   Overcast
8:53 AM 71.1 °F 66.9 °F 87% 29.99 in 10.0 mi SSE 8.1 mph - N/A   Overcast
9:04 AM 71.6 °F 66.2 °F 83% 29.98 in 10.0 mi SSE 8.1 mph 18.4 mph N/A   Overcast
9:53 AM 73.0 °F 66.0 °F 79% 29.98 in 10.0 mi South 13.8 mph 25.3 mph N/A   Overcast
10:00 AM 73.4 °F 66.2 °F 78% 29.98 in 10.0 mi South 19.6 mph 25.3 mph N/A   Overcast
10:48 AM 73.4 °F 66.2 °F 78% 29.98 in 1.8 mi South 15.0 mph 21.9 mph N/A   Haze
10:53 AM 75.0 °F 66.0 °F 73% 29.99 in 2.0 mi South 20.7 mph 26.5 mph N/A   Haze
11:01 AM 73.4 °F 66.2 °F 78% 29.99 in 10.0 mi South 18.4 mph 31.1 mph N/A   Overcast
11:53 AM 75.0 °F 66.0 °F 73% 29.93 in 10.0 mi South 18.4 mph 28.8 mph N/A   Overcast
12:53 PM 75.0 °F 66.0 °F 73% 29.91 in 10.0 mi South 15.0 mph 26.5 mph N/A   Overcast
1:53 PM 73.9 °F 66.9 °F 79% 29.87 in 8.0 mi South 10.4 mph 19.6 mph 0.00 in Rain Light Rain
2:18 PM 73.4 °F 68.0 °F 83% 29.84 in 7.0 mi South 13.8 mph 21.9 mph 0.00 in Rain Light Rain
2:53 PM 73.9 °F 69.1 °F 85% 29.82 in 10.0 mi South 16.1 mph 29.9 mph 0.01 in   Overcast
3:53 PM 73.9 °F 69.1 °F 85% 29.81 in 10.0 mi South 18.4 mph 25.3 mph N/A   Overcast
4:53 PM 73.0 °F 68.0 °F 84% 29.80 in 9.0 mi South 15.0 mph 25.3 mph N/A   Overcast
5:53 PM 73.0 °F 68.0 °F 84% 29.78 in 10.0 mi South 16.1 mph 27.6 mph N/A   Overcast
6:53 PM 73.0 °F 68.0 °F 84% 29.78 in 10.0 mi South 15.0 mph 29.9 mph N/A   Overcast
7:53 PM 72.0 °F 68.0 °F 87% 29.77 in 9.0 mi South 18.4 mph 32.2 mph N/A   Overcast
8:53 PM 72.0 °F 68.0 °F 87% 29.75 in 9.0 mi South 18.4 mph 33.4 mph N/A   Overcast
9:53 PM 73.0 °F 68.0 °F 84% 29.76 in 10.0 mi South 17.3 mph 27.6 mph N/A   Overcast
10:53 PM 73.0 °F 68.0 °F 84% 29.75 in 10.0 mi South 19.6 mph 33.4 mph N/A   Overcast
11:53 PM 72.0 °F 68.0 °F 87% 29.75 in 10.0 mi South 24.2 mph 29.9 mph N/A   Overcast